contact:dominique.lefevre@mio.osupytheas.fr, maurice.libes@osupytheas.fr, didier.mallarino@osupytheas.fr
Project:EMSO http://www.emso-fr.org/EMSO-France
Depth: 2436.0 m
Title:EMSO Ligure Ouest : Data MII capteur AQUADOPP
Date,Latitude,Longitude,X_East,Y_North,Z_Up,Amplitude_X,Amplitude_Y,Amplitude_Z,Batterie,SoundSpeed,Heading,Pitch,Roll,Pressure,TIS,Speed,Direction
, degrees North, degrees East, m.s-1, m.s-1,m.s-1, 1, 1, 1, Volt, m.s-1, degree, degree, degree, dbar, degree_C, m.s-1, degree
2019-06-27T00:09:05,42.805,6.029,0.034,0.015,0.027,102.0,106.0,99.0,13.3,1505.2,326.4,-0.8,1.8,2470.249,13.3,0.037,66.2
2019-06-27T00:12:06,42.805,6.029,0.042,0.026,-0.021,103.0,106.0,99.0,13.4,1505.3,323.0,-0.7,1.8,2470.206,13.31,0.049,58.2
2019-06-27T00:15:07,42.805,6.029,0.002,0.006,-0.007,102.0,106.0,99.0,13.4,1505.3,325.3,-0.7,1.8,2470.194,13.32,0.006,18.4
2019-06-27T00:18:08,42.805,6.029,0.016,0.013,0.048,103.0,105.0,99.0,13.4,1505.3,323.8,-0.7,1.9,2470.173,13.33,0.02,50.9
2019-06-27T00:21:09,42.805,6.029,-0.007,0.018,0.006,104.0,106.0,99.0,13.4,1505.3,323.8,-0.7,1.8,2470.207,13.33,0.019,338.8
2019-06-27T00:24:10,42.805,6.029,0.009,0.029,-0.003,104.0,107.0,100.0,13.3,1505.3,327.5,-0.7,1.9,2470.189,13.33,0.03,17.2
2019-06-27T00:27:11,42.805,6.029,0.019,0.014,0.041,104.0,106.0,99.0,13.3,1505.3,324.5,-0.7,1.8,2470.197,13.33,0.023,53.6
2019-06-27T00:30:12,42.805,6.029,0.015,0.023,-0.009,104.0,109.0,100.0,13.4,1505.4,325.0,-0.7,1.8,2470.199,13.34,0.027,33.1
2019-06-27T00:33:13,42.805,6.029,0.028,0.014,0.019,106.0,105.0,99.0,13.3,1505.4,325.8,-0.7,1.9,2470.13,13.34,0.031,63.4
2019-06-27T00:36:14,42.805,6.029,0.05,0.033,0.023,103.0,106.0,100.0,13.3,1505.4,324.4,-0.7,1.8,2470.167,13.34,0.059,56.6
2019-06-27T00:39:15,42.805,6.029,0.006,0.002,-0.02,104.0,105.0,100.0,13.4,1505.4,324.9,-0.7,1.8,2470.156,13.34,0.006,71.6
2019-06-27T00:42:16,42.805,6.029,0.019,0.011,0.015,101.0,106.0,99.0,13.4,1505.4,326.0,-0.7,1.8,2470.168,13.34,0.021,59.9
2019-06-27T00:45:17,42.805,6.029,0.015,0.011,-0.002,102.0,106.0,98.0,13.4,1505.4,328.0,-0.7,1.8,2470.177,13.34,0.018,53.7
2019-06-27T00:48:18,42.805,6.029,0.012,0.006,0.005,102.0,107.0,100.0,13.4,1505.4,326.3,-0.7,1.8,2470.209,13.34,0.013,63.4
2019-06-27T00:51:19,42.805,6.029,-0.014,0.013,-0.024,102.0,105.0,100.0,13.4,1505.4,323.8,-0.7,1.9,2470.157,13.34,0.019,312.9
2019-06-27T00:54:20,42.805,6.029,-0.018,-0.013,-0.015,102.0,107.0,99.0,13.4,1505.4,324.2,-0.7,1.9,2470.183,13.34,0.022,234.2
2019-06-27T00:57:21,42.805,6.029,-0.009,-0.01,-0.009,106.0,106.0,99.0,13.4,1505.4,323.4,-0.8,1.8,2470.145,13.34,0.013,222.0
2019-06-27T01:00:22,42.805,6.029,-0.022,0.011,-0.025,101.0,106.0,99.0,13.4,1505.4,324.7,-0.8,1.8,2470.159,13.35,0.024,296.6
2019-06-27T01:03:23,42.805,6.029,-0.002,-0.017,-0.006,103.0,107.0,99.0,13.4,1505.4,323.2,-0.7,1.8,2470.205,13.35,0.017,186.7
2019-06-27T01:06:24,42.805,6.029,-0.029,0.014,0.0,103.0,106.0,99.0,13.4,1505.4,324.4,-0.7,1.8,2470.114,13.34,0.032,295.8
2019-06-27T01:09:25,42.805,6.029,0.001,0.025,0.009,102.0,108.0,100.0,13.4,1505.4,325.8,-0.7,1.8,2470.198,13.35,0.025,2.3
2019-06-27T01:12:26,42.805,6.029,-0.023,0.02,-0.025,105.0,106.0,100.0,13.4,1505.4,325.7,-0.7,1.8,2470.152,13.34,0.03,311.0
2019-06-27T01:15:27,42.805,6.029,0.007,0.012,-0.012,103.0,106.0,100.0,13.4,1505.4,324.3,-0.7,1.8,2470.13,13.34,0.013,30.3
2019-06-27T01:18:28,42.805,6.029,-0.007,0.012,-0.001,102.0,107.0,99.0,13.4,1505.4,325.9,-0.7,1.8,2470.173,13.34,0.013,329.7
2019-06-27T01:21:29,42.805,6.029,-0.022,0.012,-0.005,103.0,106.0,100.0,13.4,1505.4,323.2,-0.7,1.8,2470.132,13.34,0.025,298.6
2019-06-27T01:24:30,42.805,6.029,0.001,0.018,-0.001,103.0,105.0,101.0,13.3,1505.4,323.7,-0.7,1.8,2470.164,13.34,0.018,3.2
2019-06-27T01:27:31,42.805,6.029,-0.001,0.007,0.022,104.0,107.0,99.0,13.4,1505.4,323.8,-0.7,1.9,2470.14,13.35,0.007,351.9
2019-06-27T01:30:32,42.805,6.029,-0.013,0.024,-0.038,104.0,106.0,99.0,13.4,1505.4,324.2,-0.7,1.9,2470.176,13.35,0.027,331.6
2019-06-27T01:33:33,42.805,6.029,0.007,0.005,-0.023,103.0,106.0,101.0,13.4,1505.4,328.3,-0.8,1.9,2470.172,13.35,0.008,54.5
2019-06-27T01:36:34,42.805,6.029,-0.027,0.01,-0.022,103.0,107.0,101.0,13.4,1505.4,327.4,-0.7,1.8,2470.149,13.35,0.028,290.3
2019-06-27T01:39:35,42.805,6.029,-0.024,0.0,-0.017,103.0,107.0,99.0,13.4,1505.4,326.7,-0.7,1.8,2470.206,13.35,0.024,270.0
2019-06-27T01:42:36,42.805,6.029,-0.018,0.008,-0.022,105.0,107.0,100.0,13.4,1505.4,328.5,-0.7,1.9,2470.117,13.35,0.019,294.0
2019-06-27T01:45:37,42.805,6.029,0.013,0.005,0.021,102.0,106.0,100.0,13.3,1505.4,325.3,-0.8,1.9,2470.177,13.35,0.013,69.0
2019-06-27T01:48:38,42.805,6.029,-0.025,0.004,-0.035,103.0,108.0,99.0,13.4,1505.4,326.5,-0.7,1.8,2470.137,13.34,0.025,279.1
2019-06-27T01:51:39,42.805,6.029,-0.001,0.01,-0.045,103.0,107.0,100.0,13.3,1505.4,326.3,-0.7,1.8,2470.169,13.34,0.01,354.3
2019-06-27T01:54:40,42.805,6.029,-0.006,-0.004,-0.034,101.0,107.0,99.0,13.4,1505.4,328.4,-0.7,1.8,2470.145,13.34,0.007,236.3
2019-06-27T01:57:41,42.805,6.029,-0.041,0.0,-0.022,103.0,108.0,99.0,13.4,1505.4,327.9,-0.7,1.9,2470.164,13.34,0.041,270.0
2019-06-27T02:00:42,42.805,6.029,-0.02,0.014,-0.002,103.0,106.0,101.0,13.4,1505.4,327.0,-0.7,1.8,2470.169,13.34,0.024,305.0
2019-06-27T02:03:43,42.805,6.029,-0.032,0.014,-0.029,103.0,107.0,101.0,13.4,1505.4,324.7,-0.7,1.8,2470.143,13.34,0.034,293.6
2019-06-27T02:06:44,42.805,6.029,-0.048,-0.002,-0.039,103.0,106.0,100.0,13.4,1505.4,324.3,-0.7,1.9,2470.134,13.34,0.048,267.6
2019-06-27T02:09:45,42.805,6.029,-0.02,0.011,-0.017,102.0,105.0,100.0,13.4,1505.4,324.5,-0.7,1.8,2470.174,13.34,0.022,298.8
2019-06-27T02:12:46,42.805,6.029,-0.006,0.004,0.008,102.0,106.0,99.0,13.3,1505.4,324.5,-0.7,1.8,2470.122,13.34,0.007,303.7
2019-06-27T02:15:47,42.805,6.029,-0.034,0.019,-0.077,103.0,108.0,102.0,13.3,1505.4,324.4,-0.8,1.8,2470.194,13.34,0.038,299.2
2019-06-27T02:18:48,42.805,6.029,-0.012,0.006,0.01,101.0,108.0,100.0,13.4,1505.4,325.1,-0.7,1.9,2470.177,13.34,0.013,296.6
2019-06-27T02:21:49,42.805,6.029,-0.031,0.004,-0.053,103.0,108.0,101.0,13.4,1505.4,327.7,-0.7,1.9,2470.193,13.34,0.031,277.3
2019-06-27T02:24:50,42.805,6.029,-0.015,0.007,-0.029,103.0,107.0,100.0,13.4,1505.4,324.9,-0.7,1.9,2470.136,13.34,0.016,295.0
2019-06-27T02:27:51,42.805,6.029,-0.023,0.015,0.04,102.0,108.0,100.0,13.4,1505.4,326.5,-0.7,1.9,2470.178,13.34,0.027,303.1
2019-06-27T02:30:52,42.805,6.029,-0.001,0.029,0.011,103.0,108.0,100.0,13.3,1505.4,325.8,-0.7,1.8,2470.152,13.34,0.029,358.0
2019-06-27T02:33:53,42.805,6.029,-0.016,0.012,-0.006,103.0,108.0,100.0,13.4,1505.4,326.6,-0.7,1.9,2470.205,13.34,0.02,306.9
2019-06-27T02:36:54,42.805,6.029,-0.023,0.007,-0.007,103.0,109.0,100.0,13.4,1505.4,324.0,-0.8,1.8,2470.144,13.34,0.024,286.9
2019-06-27T02:39:55,42.805,6.029,-0.046,0.002,-0.026,103.0,108.0,99.0,13.4,1505.4,326.4,-0.7,1.8,2470.19,13.34,0.046,272.5
2019-06-27T02:42:56,42.805,6.029,-0.011,-0.003,-0.007,106.0,106.0,99.0,13.4,1505.4,325.2,-0.7,1.8,2470.182,13.34,0.011,254.7
2019-06-27T02:45:57,42.805,6.029,-0.036,0.006,-0.02,104.0,108.0,100.0,13.3,1505.4,325.6,-0.7,1.8,2470.142,13.34,0.036,279.5
2019-06-27T02:48:58,42.805,6.029,-0.021,0.02,0.002,103.0,107.0,100.0,13.4,1505.4,328.3,-0.7,1.9,2470.136,13.34,0.028,313.6
2019-06-27T02:51:59,42.805,6.029,-0.043,0.014,-0.04,102.0,107.0,100.0,13.4,1505.4,326.7,-0.7,1.9,2470.185,13.34,0.045,288.0
2019-06-27T02:55:00,42.805,6.029,-0.047,0.014,-0.029,104.0,107.0,100.0,13.4,1505.4,326.0,-0.7,1.8,2470.15,13.34,0.049,286.6
2019-06-27T02:58:01,42.805,6.029,-0.014,0.007,0.009,101.0,108.0,99.0,13.3,1505.4,326.8,-0.7,1.8,2470.222,13.34,0.015,296.6
2019-06-27T03:01:02,42.805,6.029,-0.03,0.015,0.005,104.0,107.0,99.0,13.4,1505.4,324.0,-0.8,1.8,2470.126,13.34,0.033,296.6
2019-06-27T03:04:03,42.805,6.029,-0.004,0.008,0.025,102.0,107.0,99.0,13.4,1505.3,327.3,-0.7,1.8,2470.176,13.33,0.008,333.4
2019-06-27T03:07:04,42.805,6.029,-0.003,0.004,0.02,101.0,109.0,98.0,13.4,1505.3,324.9,-0.7,1.9,2470.174,13.33,0.005,323.1
2019-06-27T03:10:05,42.805,6.029,-0.012,0.016,-0.005,102.0,107.0,100.0,13.4,1505.3,323.5,-0.7,1.8,2470.213,13.33,0.02,323.1
2019-06-27T03:13:06,42.805,6.029,-0.001,0.006,0.008,102.0,108.0,99.0,13.3,1505.3,324.6,-0.7,1.8,2470.191,13.33,0.006,350.5
2019-06-27T03:16:07,42.805,6.029,-0.021,0.016,0.018,102.0,107.0,99.0,13.4,1505.3,323.1,-0.7,1.8,2470.156,13.33,0.026,307.3
2019-06-27T03:19:08,42.805,6.029,-0.024,0.021,0.0,103.0,107.0,99.0,13.4,1505.3,326.8,-0.7,1.9,2470.139,13.33,0.031,311.2
2019-06-27T03:22:09,42.805,6.029,-0.038,0.009,-0.049,103.0,107.0,98.0,13.3,1505.3,325.3,-0.8,1.9,2470.178,13.33,0.039,283.3
2019-06-27T03:25:10,42.805,6.029,-0.043,0.022,-0.02,101.0,107.0,99.0,13.3,1505.3,324.2,-0.7,1.8,2470.155,13.33,0.048,297.1
2019-06-27T03:28:11,42.805,6.029,-0.049,0.016,-0.026,101.0,108.0,98.0,13.4,1505.3,323.0,-0.7,1.8,2470.147,13.33,0.051,288.1
2019-06-27T03:31:12,42.805,6.029,-0.012,-0.002,0.006,104.0,109.0,99.0,13.4,1505.3,326.6,-0.7,1.8,2470.173,13.33,0.012,260.5
2019-06-27T03:34:13,42.805,6.029,-0.028,0.01,-0.005,101.0,106.0,100.0,13.4,1505.4,326.6,-0.7,1.8,2470.147,13.34,0.029,289.6
2019-06-27T03:37:14,42.805,6.029,-0.029,0.015,-0.022,103.0,106.0,100.0,13.4,1505.3,327.0,-0.7,1.8,2470.179,13.33,0.032,297.4
2019-06-27T03:40:15,42.805,6.029,-0.002,0.031,-0.023,101.0,108.0,99.0,13.4,1505.3,325.8,-0.8,1.8,2470.175,13.33,0.031,356.3
2019-06-27T03:43:16,42.805,6.029,-0.039,0.018,0.022,102.0,105.0,98.0,13.4,1505.3,326.6,-0.7,1.9,2470.14,13.33,0.042,294.8
2019-06-27T03:46:17,42.805,6.029,-0.016,0.007,0.018,102.0,105.0,98.0,13.3,1505.3,326.3,-0.7,1.8,2470.172,13.33,0.017,293.6
2019-06-27T03:49:18,42.805,6.029,-0.043,0.017,-0.041,103.0,107.0,98.0,13.4,1505.3,326.9,-0.7,1.8,2470.189,13.33,0.046,291.6
2019-06-27T03:52:19,42.805,6.029,-0.002,0.025,0.005,102.0,109.0,98.0,13.4,1505.3,326.9,-0.8,1.8,2470.188,13.33,0.025,355.4
2019-06-27T03:55:20,42.805,6.029,-0.026,-0.001,-0.014,103.0,107.0,98.0,13.4,1505.3,325.8,-0.7,1.8,2470.168,13.33,0.026,267.8
2019-06-27T03:58:21,42.805,6.029,-0.004,0.009,0.009,102.0,107.0,99.0,13.3,1505.3,326.8,-0.8,1.8,2470.179,13.33,0.009,336.0
2019-06-27T04:01:22,42.805,6.029,-0.006,0.011,0.007,103.0,108.0,98.0,13.3,1505.3,324.5,-0.7,1.8,2470.161,13.33,0.012,331.4
2019-06-27T04:04:23,42.805,6.029,-0.017,0.0,-0.004,103.0,107.0,98.0,13.4,1505.3,323.5,-0.7,1.8,2470.181,13.33,0.017,270.0
2019-06-27T04:07:24,42.805,6.029,-0.024,-0.007,-0.003,102.0,107.0,98.0,13.3,1505.3,323.5,-0.7,1.9,2470.151,13.33,0.025,253.7
2019-06-27T04:10:25,42.805,6.029,0.016,0.016,-0.015,103.0,108.0,99.0,13.4,1505.3,324.7,-0.7,1.8,2470.132,13.33,0.022,45.0
2019-06-27T04:13:26,42.805,6.029,-0.014,0.008,0.029,105.0,109.0,99.0,13.4,1505.3,325.8,-0.8,1.8,2470.161,13.33,0.016,299.7
2019-06-27T04:16:27,42.805,6.029,0.006,0.027,0.025,102.0,107.0,99.0,13.4,1505.3,324.7,-0.7,1.8,2470.108,13.33,0.027,12.5
2019-06-27T04:19:28,42.805,6.029,0.003,0.007,0.021,102.0,108.0,99.0,13.4,1505.3,327.8,-0.7,1.9,2470.154,13.33,0.007,23.2
2019-06-27T04:22:29,42.805,6.029,-0.039,0.01,0.018,103.0,109.0,98.0,13.4,1505.3,326.6,-0.8,1.8,2470.159,13.33,0.04,284.4
2019-06-27T04:25:30,42.805,6.029,-0.004,0.031,0.008,104.0,110.0,98.0,13.4,1505.3,323.5,-0.7,1.9,2470.149,13.33,0.031,352.7
2019-06-27T04:28:31,42.805,6.029,0.009,0.015,0.035,104.0,107.0,99.0,13.4,1505.3,323.4,-0.7,1.8,2470.178,13.33,0.017,31.0
2019-06-27T04:31:32,42.805,6.029,-0.028,0.003,-0.01,106.0,108.0,99.0,13.4,1505.3,323.7,-0.7,1.8,2470.146,13.33,0.028,276.1
2019-06-27T04:34:33,42.805,6.029,-0.026,0.019,0.005,103.0,107.0,100.0,13.4,1505.3,325.2,-0.7,1.9,2470.16,13.33,0.032,306.2
2019-06-27T04:37:34,42.805,6.029,-0.002,0.017,0.028,104.0,107.0,100.0,13.4,1505.3,324.2,-0.7,1.8,2470.145,13.33,0.017,353.3
2019-06-27T04:40:35,42.805,6.029,0.001,0.019,0.01,102.0,108.0,98.0,13.4,1505.3,324.4,-0.7,1.8,2470.159,13.33,0.019,3.0
2019-06-27T04:43:36,42.805,6.029,-0.012,0.033,0.016,101.0,108.0,99.0,13.4,1505.3,326.4,-0.7,1.8,2470.165,13.33,0.035,340.0
2019-06-27T04:46:37,42.805,6.029,-0.035,0.013,-0.003,104.0,107.0,99.0,13.4,1505.3,326.6,-0.8,1.8,2470.151,13.33,0.037,290.4
2019-06-27T04:49:38,42.805,6.029,-0.025,0.009,-0.034,101.0,108.0,98.0,13.4,1505.3,325.6,-0.8,1.8,2470.185,13.33,0.026,289.8
2019-06-27T04:52:39,42.805,6.029,0.0,0.021,-0.013,103.0,107.0,100.0,13.4,1505.3,324.8,-0.8,1.8,2470.141,13.33,0.021,0.0
2019-06-27T04:55:40,42.805,6.029,0.019,0.043,0.043,103.0,106.0,99.0,13.4,1505.3,324.2,-0.7,1.8,2470.121,13.33,0.047,23.8
2019-06-27T04:58:41,42.805,6.029,0.005,0.024,0.046,102.0,107.0,99.0,13.4,1505.3,326.8,-0.7,1.8,2470.126,13.33,0.024,11.8
2019-06-27T05:01:42,42.805,6.029,-0.017,0.026,-0.015,101.0,109.0,98.0,13.4,1505.3,325.0,-0.7,1.8,2470.128,13.33,0.031,326.8
2019-06-27T05:04:43,42.805,6.029,-0.017,0.013,-0.032,100.0,106.0,98.0,13.4,1505.3,324.8,-0.7,1.9,2470.145,13.33,0.021,307.4
2019-06-27T05:07:44,42.805,6.029,-0.027,0.004,0.0,100.0,109.0,98.0,13.3,1505.3,326.2,-0.8,1.9,2470.149,13.33,0.027,278.4
2019-06-27T05:10:45,42.805,6.029,0.021,0.013,0.031,102.0,109.0,98.0,13.3,1505.3,325.3,-0.7,1.8,2470.189,13.33,0.024,58.2
2019-06-27T05:13:46,42.805,6.029,-0.017,0.004,-0.02,101.0,109.0,99.0,13.4,1505.3,325.3,-0.7,1.8,2470.139,13.33,0.017,283.2
2019-06-27T05:16:47,42.805,6.029,0.002,0.021,0.004,101.0,108.0,99.0,13.4,1505.3,325.2,-0.7,1.8,2470.129,13.33,0.021,5.4
2019-06-27T05:19:48,42.805,6.029,-0.048,0.03,-0.052,102.0,107.0,99.0,13.4,1505.3,328.1,-0.8,1.8,2470.182,13.33,0.056,302.0
2019-06-27T05:22:49,42.805,6.029,-0.004,0.015,-0.026,100.0,107.0,99.0,13.4,1505.3,327.1,-0.8,1.8,2470.125,13.33,0.015,345.1
2019-06-27T05:25:50,42.805,6.029,-0.016,0.012,-0.008,103.0,108.0,98.0,13.3,1505.3,326.8,-0.7,1.9,2470.112,13.33,0.02,306.9
2019-06-27T05:28:51,42.805,6.029,-0.023,0.024,0.003,101.0,108.0,98.0,13.4,1505.3,326.6,-0.7,1.8,2470.122,13.33,0.033,316.2
2019-06-27T05:31:52,42.805,6.029,0.019,0.024,0.024,101.0,109.0,99.0,13.3,1505.3,327.4,-0.7,1.8,2470.133,13.33,0.03,38.4
2019-06-27T05:34:53,42.805,6.029,0.006,0.024,0.041,102.0,109.0,100.0,13.4,1505.3,328.2,-0.7,1.8,2470.157,13.33,0.024,14.0
2019-06-27T05:37:54,42.805,6.029,-0.027,0.025,-0.008,102.0,110.0,99.0,13.4,1505.3,324.4,-0.8,1.9,2470.114,13.33,0.036,312.8
2019-06-27T05:40:55,42.805,6.029,-0.012,0.007,0.016,102.0,111.0,98.0,13.4,1505.3,326.2,-0.7,1.9,2470.154,13.33,0.013,300.3
2019-06-27T05:43:56,42.805,6.029,-0.026,0.013,0.0,101.0,109.0,98.0,13.3,1505.3,325.4,-0.8,1.8,2470.122,13.33,0.029,296.6
2019-06-27T05:46:57,42.805,6.029,-0.017,0.015,0.027,101.0,109.0,99.0,13.4,1505.3,325.0,-0.7,1.9,2470.147,13.33,0.022,311.4
2019-06-27T05:49:58,42.805,6.029,-0.012,0.021,0.011,102.0,109.0,99.0,13.4,1505.4,325.5,-0.7,1.9,2470.128,13.34,0.024,330.3
2019-06-27T05:52:59,42.805,6.029,-0.012,0.001,0.024,104.0,111.0,98.0,13.4,1505.4,324.9,-0.7,1.8,2470.085,13.34,0.012,274.8
2019-06-27T05:56:00,42.805,6.029,-0.001,0.011,0.0,101.0,110.0,99.0,13.3,1505.4,324.7,-0.7,1.9,2470.118,13.34,0.011,354.8
2019-06-27T05:59:01,42.805,6.029,-0.006,0.014,-0.011,103.0,108.0,99.0,13.3,1505.4,326.5,-0.8,1.8,2470.15,13.34,0.015,336.8
2019-06-27T06:02:02,42.805,6.029,-0.039,0.0,-0.022,102.0,109.0,99.0,13.3,1505.4,324.2,-0.7,1.8,2470.13,13.34,0.039,270.0
2019-06-27T06:05:03,42.805,6.029,-0.015,0.014,-0.01,105.0,108.0,100.0,13.4,1505.4,326.1,-0.7,1.8,2470.098,13.34,0.02,313.0
2019-06-27T06:08:04,42.805,6.029,-0.05,-0.003,0.005,104.0,110.0,99.0,13.4,1505.4,325.1,-0.7,1.8,2470.076,13.34,0.05,266.6
2019-06-27T06:11:05,42.805,6.029,-0.018,0.007,0.015,102.0,110.0,99.0,13.4,1505.4,327.5,-0.7,1.8,2470.115,13.34,0.019,291.2
2019-06-27T06:14:06,42.805,6.029,-0.022,0.033,0.023,102.0,108.0,99.0,13.4,1505.4,323.9,-0.7,1.9,2470.1,13.34,0.039,326.3
2019-06-27T06:17:07,42.805,6.029,-0.027,0.01,0.0,100.0,109.0,99.0,13.3,1505.4,323.2,-0.7,1.9,2470.117,13.34,0.028,290.3
2019-06-27T06:20:08,42.805,6.029,-0.017,0.022,-0.027,103.0,111.0,97.0,13.3,1505.4,325.5,-0.7,1.8,2470.099,13.34,0.027,322.3
2019-06-27T06:23:09,42.805,6.029,-0.014,0.004,-0.026,103.0,107.0,98.0,13.3,1505.4,324.9,-0.7,1.9,2470.085,13.34,0.014,285.9
2019-06-27T06:26:10,42.805,6.029,-0.007,0.027,0.006,103.0,108.0,99.0,13.3,1505.4,325.9,-0.8,1.8,2470.112,13.34,0.027,345.5
2019-06-27T06:29:11,42.805,6.029,-0.019,0.029,0.014,101.0,109.0,98.0,13.3,1505.4,324.9,-0.7,1.8,2470.099,13.34,0.034,326.8
2019-06-27T06:32:12,42.805,6.029,-0.032,0.031,-0.026,102.0,108.0,98.0,13.4,1505.4,327.5,-0.8,1.9,2470.127,13.34,0.044,314.1
2019-06-27T06:35:13,42.805,6.029,0.005,0.019,-0.012,102.0,107.0,99.0,13.4,1505.4,324.6,-0.7,1.9,2470.107,13.34,0.019,14.7
2019-06-27T06:38:14,42.805,6.029,-0.027,0.027,-0.005,101.0,108.0,98.0,13.4,1505.4,324.4,-0.7,1.9,2470.117,13.34,0.038,315.0
2019-06-27T06:41:15,42.805,6.029,-0.019,0.015,-0.014,101.0,108.0,98.0,13.3,1505.4,326.0,-0.7,1.8,2470.128,13.34,0.024,308.3
2019-06-27T06:44:16,42.805,6.029,0.006,0.018,-0.028,101.0,108.0,97.0,13.4,1505.4,326.8,-0.7,1.8,2470.099,13.34,0.018,18.4
2019-06-27T06:47:17,42.805,6.029,-0.033,0.019,-0.007,101.0,107.0,98.0,13.4,1505.4,325.6,-0.7,1.8,2470.102,13.34,0.038,299.9
2019-06-27T06:50:18,42.805,6.029,-0.034,0.006,-0.035,102.0,107.0,98.0,13.4,1505.4,324.2,-0.7,1.8,2470.097,13.34,0.034,280.0
2019-06-27T06:53:19,42.805,6.029,-0.027,0.004,-0.055,100.0,108.0,100.0,13.4,1505.4,327.2,-0.7,1.8,2470.098,13.34,0.027,278.4
2019-06-27T06:56:20,42.805,6.029,-0.011,0.012,-0.017,103.0,106.0,97.0,13.4,1505.4,326.9,-0.7,1.8,2470.048,13.34,0.016,317.5
2019-06-27T06:59:21,42.805,6.029,-0.012,0.025,-0.015,100.0,107.0,97.0,13.3,1505.4,327.6,-0.7,1.9,2470.084,13.34,0.027,334.4
2019-06-27T07:02:22,42.805,6.029,-0.02,0.022,-0.009,101.0,108.0,97.0,13.4,1505.4,326.4,-0.7,1.9,2470.074,13.34,0.029,317.7
2019-06-27T07:05:23,42.805,6.029,-0.017,0.018,-0.022,101.0,107.0,98.0,13.4,1505.4,328.2,-0.7,1.8,2470.069,13.34,0.024,316.6
2019-06-27T07:08:24,42.805,6.029,-0.038,-0.008,-0.017,102.0,107.0,98.0,13.4,1505.4,326.6,-0.7,1.8,2470.07,13.34,0.038,258.1
2019-06-27T07:11:25,42.805,6.029,-0.013,0.02,-0.012,102.0,108.0,98.0,13.4,1505.4,327.3,-0.7,1.8,2470.082,13.34,0.023,327.0
2019-06-27T07:14:26,42.805,6.029,-0.023,0.002,-0.034,100.0,107.0,98.0,13.4,1505.4,327.3,-0.7,1.8,2470.049,13.34,0.023,275.0
2019-06-27T07:17:27,42.805,6.029,-0.033,0.022,-0.027,102.0,108.0,99.0,13.4,1505.4,323.4,-0.7,1.8,2470.068,13.34,0.039,303.7
2019-06-27T07:20:28,42.805,6.029,-0.011,0.015,0.0,101.0,108.0,99.0,13.3,1505.4,326.8,-0.7,1.8,2470.045,13.34,0.018,323.7
2019-06-27T07:23:29,42.805,6.029,-0.007,0.028,0.02,103.0,109.0,99.0,13.3,1505.4,327.0,-0.7,1.8,2470.054,13.34,0.028,346.0
2019-06-27T07:26:30,42.805,6.029,-0.017,0.017,0.0,103.0,110.0,98.0,13.4,1505.4,327.2,-0.7,1.8,2470.094,13.34,0.024,315.0
2019-06-27T07:29:31,42.805,6.029,-0.026,-0.009,-0.027,103.0,108.0,99.0,13.4,1505.4,327.2,-0.7,1.8,2470.038,13.34,0.027,250.9
2019-06-27T07:32:32,42.805,6.029,-0.02,-0.011,-0.014,104.0,107.0,99.0,13.4,1505.4,326.9,-0.7,1.8,2470.014,13.34,0.022,241.2
2019-06-27T07:35:33,42.805,6.029,-0.02,0.004,-0.034,103.0,107.0,99.0,13.4,1505.4,325.4,-0.7,1.9,2470.078,13.34,0.02,281.3
2019-06-27T07:38:34,42.805,6.029,-0.026,0.026,0.007,103.0,108.0,99.0,13.3,1505.4,323.8,-0.7,1.8,2470.02,13.34,0.036,315.0
2019-06-27T07:41:35,42.805,6.029,-0.058,0.026,-0.002,102.0,109.0,100.0,13.4,1505.4,324.2,-0.7,1.9,2470.072,13.34,0.063,294.1
2019-06-27T07:44:36,42.805,6.029,-0.044,0.015,-0.033,103.0,109.0,100.0,13.3,1505.4,326.9,-0.7,1.8,2470.05,13.34,0.046,288.8
2019-06-27T07:47:37,42.805,6.029,-0.005,0.024,-0.009,103.0,108.0,99.0,13.3,1505.4,326.5,-0.7,1.8,2470.042,13.34,0.024,348.2
2019-06-27T07:50:38,42.805,6.029,-0.036,-0.007,-0.065,100.0,110.0,99.0,13.4,1505.4,326.3,-0.7,1.8,2470.057,13.34,0.036,259.0
2019-06-27T07:53:39,42.805,6.029,-0.033,0.011,-0.039,102.0,109.0,98.0,13.3,1505.4,325.8,-0.7,1.8,2470.05,13.34,0.034,288.4
2019-06-27T07:56:40,42.805,6.029,-0.043,0.014,-0.049,103.0,108.0,99.0,13.3,1505.4,325.7,-0.8,1.8,2470.05,13.34,0.045,288.0
2019-06-27T07:59:41,42.805,6.029,-0.026,0.013,-0.025,103.0,108.0,97.0,13.3,1505.4,326.4,-0.7,1.8,2470.062,13.34,0.029,296.6
2019-06-27T08:02:42,42.805,6.029,-0.031,0.02,0.005,102.0,108.0,99.0,13.4,1505.4,325.9,-0.7,1.9,2470.036,13.34,0.036,302.8
2019-06-27T08:05:43,42.805,6.029,-0.048,0.01,-0.015,102.0,108.0,98.0,13.4,1505.4,323.0,-0.7,1.9,2470.068,13.34,0.049,281.8
2019-06-27T08:08:44,42.805,6.029,0.016,0.008,0.0,100.0,108.0,98.0,13.4,1505.4,323.5,-0.7,1.8,2470.077,13.34,0.017,63.4
2019-06-27T08:11:45,42.805,6.029,-0.058,0.017,-0.056,99.0,110.0,99.0,13.3,1505.4,324.8,-0.7,1.8,2470.032,13.34,0.06,286.3
2019-06-27T08:14:46,42.805,6.029,-0.033,-0.006,-0.034,101.0,107.0,98.0,13.3,1505.4,325.3,-0.7,1.8,2470.044,13.34,0.033,259.7
2019-06-27T08:17:47,42.805,6.029,-0.031,0.021,-0.014,105.0,108.0,99.0,13.4,1505.4,326.9,-0.7,1.8,2470.06,13.34,0.037,304.1
2019-06-27T08:20:48,42.805,6.029,-0.015,0.011,-0.004,101.0,107.0,100.0,13.3,1505.4,327.6,-0.7,1.9,2470.02,13.34,0.018,306.3
2019-06-27T08:23:49,42.805,6.029,-0.021,0.012,-0.028,102.0,108.0,99.0,13.4,1505.4,323.6,-0.7,1.8,2470.033,13.34,0.024,299.7
2019-06-27T08:26:50,42.805,6.029,-0.017,0.03,-0.009,102.0,108.0,99.0,13.3,1505.4,327.0,-0.7,1.8,2470.034,13.34,0.034,330.5
2019-06-27T08:29:51,42.805,6.029,-0.027,0.023,0.004,101.0,108.0,99.0,13.4,1505.4,325.1,-0.7,1.8,2470.012,13.34,0.035,310.4
2019-06-27T08:32:52,42.805,6.029,-0.041,-0.003,-0.011,101.0,107.0,99.0,13.4,1505.4,325.7,-0.7,1.9,2470.048,13.34,0.041,265.8
2019-06-27T08:35:53,42.805,6.029,-0.042,0.004,-0.078,102.0,108.0,99.0,13.4,1505.4,326.3,-0.7,1.9,2470.039,13.34,0.042,275.4
2019-06-27T08:38:54,42.805,6.029,-0.026,0.017,-0.036,104.0,109.0,98.0,13.4,1505.4,323.5,-0.7,1.8,2470.047,13.34,0.031,303.2
2019-06-27T08:41:55,42.805,6.029,-0.03,0.004,-0.048,102.0,110.0,99.0,13.4,1505.4,327.8,-0.7,1.8,2470.077,13.34,0.03,277.6
2019-06-27T08:44:56,42.805,6.029,-0.002,0.026,-0.022,102.0,107.0,99.0,13.3,1505.4,327.9,-0.8,1.9,2470.047,13.34,0.026,355.6
2019-06-27T08:47:57,42.805,6.029,-0.03,0.001,-0.042,101.0,109.0,99.0,13.4,1505.4,323.8,-0.7,1.9,2470.022,13.34,0.03,271.9
2019-06-27T08:50:58,42.805,6.029,-0.025,0.005,-0.025,102.0,108.0,100.0,13.3,1505.4,325.0,-0.8,1.8,2469.994,13.34,0.025,281.3
2019-06-27T08:53:59,42.805,6.029,-0.034,0.013,-0.012,103.0,108.0,100.0,13.4,1505.4,324.5,-0.7,1.9,2470.028,13.34,0.036,290.9
2019-06-27T08:57:00,42.805,6.029,-0.036,0.021,-0.041,101.0,109.0,98.0,13.4,1505.4,327.7,-0.7,1.9,2470.045,13.34,0.041,300.3
2019-06-27T09:00:01,42.805,6.029,-0.02,0.006,-0.031,103.0,108.0,98.0,13.4,1505.4,327.5,-0.7,1.9,2470.056,13.34,0.02,286.7
2019-06-27T09:03:02,42.805,6.029,-0.011,0.016,0.004,100.0,108.0,98.0,13.4,1505.4,325.5,-0.7,1.9,2470.021,13.34,0.019,325.5
2019-06-27T09:06:03,42.805,6.029,-0.007,0.001,-0.052,103.0,109.0,98.0,13.4,1505.4,323.3,-0.7,1.8,2470.02,13.34,0.007,278.1
2019-06-27T09:09:04,42.805,6.029,-0.015,-0.003,-0.015,102.0,107.0,99.0,13.4,1505.4,325.9,-0.7,1.8,2469.989,13.34,0.015,258.7
2019-06-27T09:12:05,42.805,6.029,-0.008,0.016,-0.016,103.0,109.0,99.0,13.4,1505.4,325.9,-0.8,1.8,2469.997,13.34,0.017,333.4
2019-06-27T09:15:06,42.805,6.029,-0.025,0.003,-0.016,102.0,109.0,99.0,13.4,1505.4,326.8,-0.7,1.8,2470.006,13.34,0.025,276.8
2019-06-27T09:18:07,42.805,6.029,-0.021,0.011,-0.017,101.0,109.0,99.0,13.3,1505.4,323.3,-0.7,1.8,2470.077,13.34,0.023,297.6
2019-06-27T09:21:08,42.805,6.029,-0.02,0.001,-0.04,104.0,108.0,97.0,13.4,1505.4,326.0,-0.7,1.8,2469.991,13.34,0.02,272.9
2019-06-27T09:24:09,42.805,6.029,0.006,0.018,-0.004,101.0,108.0,99.0,13.4,1505.4,326.5,-0.7,1.9,2470.024,13.34,0.018,18.4
2019-06-27T09:27:10,42.805,6.029,-0.02,0.011,-0.009,103.0,108.0,99.0,13.3,1505.4,323.8,-0.7,1.9,2470.011,13.34,0.022,298.8
2019-06-27T09:30:11,42.805,6.029,-0.04,0.021,-0.037,101.0,108.0,100.0,13.3,1505.4,325.9,-0.7,1.8,2470.043,13.34,0.045,297.7
2019-06-27T09:33:12,42.805,6.029,0.01,0.022,-0.045,101.0,107.0,98.0,13.4,1505.4,324.3,-0.7,1.8,2469.987,13.34,0.024,24.4
2019-06-27T09:36:13,42.805,6.029,-0.008,0.012,-0.028,102.0,108.0,99.0,13.3,1505.4,328.0,-0.7,1.8,2469.998,13.34,0.014,326.3
2019-06-27T09:39:14,42.805,6.029,-0.027,0.002,-0.038,100.0,108.0,99.0,13.3,1505.4,324.2,-0.7,1.9,2470.02,13.34,0.027,274.2
2019-06-27T09:42:15,42.805,6.029,-0.007,0.008,-0.016,102.0,107.0,99.0,13.4,1505.4,326.8,-0.7,1.9,2470.053,13.34,0.01,318.8